When you browse on this site, cookies collect data to enhance your experience and personalize the content and advertising you see.
Visit our Privacy Policy to learn more. By continuing to use the site, you agree to this use of cookies and data.
  • In United Kingdom
  • List of Countries
  • For 7 days
  • Water Temperature
  • Satellite Maps
  • Weather Map
  • Weather Widgets
  • user-avatar
    Login

    Hourly Weather Blagoevgrad

    Today, 25 April, Thursday

    Time Temperature Precipitation Wind Pressure Humidity
    00:00 +12°C° 0 mm 2 mps 725 mmHg 77%
    01:00 +12°C° 0 mm 1 mps 725 mmHg 76%
    02:00 +12°C° 0 mm 1 mps 725 mmHg 74%
    03:00 +12°C° 0 mm 1 mps 725 mmHg 73%
    04:00 +12°C° 0 mm 1 mps 725 mmHg 72%
    05:00 +12°C° 0 mm 1 mps 725 mmHg 70%
    06:00 +14°C° 0 mm 1 mps 725 mmHg 65%
    07:00 +16°C° 0 mm 1 mps 725 mmHg 60%
    08:00 +19°C° 0 mm 1 mps 726 mmHg 55%
    09:00 +21°C° 0 mm 1 mps 726 mmHg 51%
    10:00 +23°C° 0 mm 1 mps 726 mmHg 48%
    11:00 +24°C° 0 mm 2 mps 726 mmHg 44%
    12:00 +25°C° 0 mm 2 mps 726 mmHg 42%
    13:00 +26°C° 0 mm 2 mps 725 mmHg 40%
    14:00 +26°C° 0 mm 2 mps 725 mmHg 38%
    15:00 +26°C° 0 mm 2 mps 725 mmHg 40%
    16:00 +25°C° 0 mm 2 mps 724 mmHg 43%
    17:00 +25°C° 0 mm 2 mps 724 mmHg 45%
    18:00 +23°C° 0 mm 2 mps 724 mmHg 54%
    19:00 +20°C° 0 mm 2 mps 724 mmHg 63%
    20:00 +18°C° 0 mm 2 mps 723 mmHg 72%
    21:00 +18°C° 0.1 mm 1 mps 724 mmHg 76%
    22:00 +16°C° 0.1 mm 1 mps 724 mmHg 81%
    23:00 +16°C° 0.1 mm 1 mps 724 mmHg 85%

    Tomorrow, 26 April, Friday

    Time Temperature Precipitation Wind Pressure Humidity
    00:00 +15°C° 0 mm 1 mps 724 mmHg 85%
    01:00 +15°C° 0 mm 1 mps 724 mmHg 85%
    02:00 +14°C° 0 mm 1 mps 724 mmHg 86%
    03:00 +14°C° 0 mm 1 mps 723 mmHg 84%
    04:00 +14°C° 0 mm 1 mps 723 mmHg 82%
    05:00 +13°C° 0 mm 1 mps 723 mmHg 81%
    06:00 +15°C° 0 mm 0 mps 723 mmHg 73%
    07:00 +17°C° 0 mm 0 mps 723 mmHg 66%
    08:00 +19°C° 0 mm 0 mps 724 mmHg 59%
    09:00 +21°C° 0 mm 0 mps 724 mmHg 52%
    10:00 +24°C° 0 mm 1 mps 724 mmHg 46%
    11:00 +26°C° 0 mm 1 mps 724 mmHg 39%
    12:00 +27°C° 0 mm 1 mps 723 mmHg 38%
    13:00 +27°C° 0 mm 1 mps 723 mmHg 36%
    14:00 +28°C° 0 mm 1 mps 723 mmHg 35%
    15:00 +27°C° 0 mm 1 mps 722 mmHg 36%
    16:00 +27°C° 0 mm 1 mps 722 mmHg 38%
    17:00 +26°C° 0 mm 1 mps 721 mmHg 39%
    18:00 +24°C° 0 mm 2 mps 721 mmHg 49%
    19:00 +21°C° 0 mm 2 mps 721 mmHg 59%
    20:00 +18°C° 0 mm 2 mps 721 mmHg 69%
    21:00 +18°C° 0 mm 2 mps 721 mmHg 75%
    22:00 +17°C° 0 mm 2 mps 721 mmHg 80%
    23:00 +16°C° 0 mm 2 mps 721 mmHg 85%

    Day after tomorrow, 27 April, Saturday

    Time Temperature Precipitation Wind Pressure Humidity
    00:00 +16°C° 0 mm 2 mps 721 mmHg 87%
    01:00 +16°C° 0 mm 2 mps 721 mmHg 89%
    02:00 +15°C° 0 mm 2 mps 720 mmHg 91%
    03:00 +15°C° 0 mm 2 mps 720 mmHg 92%
    04:00 +15°C° 0 mm 2 mps 720 mmHg 92%
    05:00 +15°C° 0 mm 2 mps 719 mmHg 92%
    06:00 +16°C° 0 mm 2 mps 719 mmHg 85%
    07:00 +18°C° 0 mm 2 mps 720 mmHg 78%
    08:00 +19°C° 0 mm 2 mps 720 mmHg 71%
    09:00 +21°C° 0 mm 2 mps 719 mmHg 65%
    10:00 +22°C° 0 mm 3 mps 719 mmHg 58%
    11:00 +25°C° 0 mm 3 mps 719 mmHg 51%
    12:00 +25°C° 0.4 mm 3 mps 719 mmHg 50%
    13:00 +25°C° 0.4 mm 3 mps 719 mmHg 48%
    14:00 +25°C° 0.4 mm 4 mps 718 mmHg 47%
    15:00 +24°C° 0.6 mm 3 mps 718 mmHg 52%
    16:00 +22°C° 0.6 mm 3 mps 717 mmHg 57%
    17:00 +21°C° 0.6 mm 2 mps 717 mmHg 61%
    18:00 +19°C° 0.2 mm 2 mps 717 mmHg 66%
    19:00 +19°C° 0.2 mm 1 mps 717 mmHg 70%
    20:00 +18°C° 0.2 mm 1 mps 717 mmHg 74%
    21:00 +16°C° 0.1 mm 1 mps 717 mmHg 76%
    22:00 +15°C° 0.1 mm 1 mps 718 mmHg 78%
    23:00 +15°C° 0.1 mm 1 mps 718 mmHg 80%

    28 April, Sunday

    Time Temperature Precipitation Wind Pressure Humidity
    00:00 +14°C° 0 mm 1 mps 718 mmHg 83%
    01:00 +13°C° 0 mm 1 mps 718 mmHg 86%
    02:00 +12°C° 0 mm 1 mps 718 mmHg 89%
    03:00 +12°C° 0 mm 1 mps 718 mmHg 88%
    04:00 +11°C° 0 mm 1 mps 718 mmHg 88%
    05:00 +11°C° 0 mm 1 mps 718 mmHg 88%
    06:00 +12°C° 0 mm 1 mps 718 mmHg 79%
    07:00 +14°C° 0 mm 2 mps 718 mmHg 71%
    08:00 +15°C° 0 mm 2 mps 719 mmHg 62%
    09:00 +17°C° 0 mm 2 mps 719 mmHg 54%
    10:00 +18°C° 0 mm 2 mps 719 mmHg 45%
    11:00 +20°C° 0 mm 2 mps 719 mmHg 36%
    12:00 +22°C° 0 mm 1 mps 719 mmHg 34%
    13:00 +23°C° 0 mm 1 mps 718 mmHg 32%
    14:00 +24°C° 0 mm 1 mps 718 mmHg 30%
    15:00 +23°C° 0 mm 1 mps 717 mmHg 31%
    16:00 +23°C° 0 mm 2 mps 717 mmHg 32%
    17:00 +23°C° 0 mm 2 mps 717 mmHg 33%
    18:00 +20°C° 0 mm 1 mps 717 mmHg 40%
    19:00 +18°C° 0 mm 1 mps 717 mmHg 47%
    20:00 +15°C° 0 mm 1 mps 716 mmHg 54%
    21:00 +14°C° 0 mm 1 mps 717 mmHg 55%
    22:00 +13°C° 0 mm 1 mps 717 mmHg 55%
    23:00 +13°C° 0 mm 1 mps 717 mmHg 56%

    29 April, Monday

    Time Temperature Precipitation Wind Pressure Humidity
    00:00 +13°C° 0 mm 1 mps 717 mmHg 58%
    01:00 +12°C° 0 mm 1 mps 717 mmHg 60%
    02:00 +12°C° 0 mm 2 mps 717 mmHg 61%
    03:00 +12°C° 0 mm 1 mps 716 mmHg 64%
    04:00 +11°C° 0 mm 1 mps 716 mmHg 68%
    05:00 +11°C° 0 mm 1 mps 716 mmHg 71%
    06:00 +13°C° 0 mm 1 mps 716 mmHg 65%
    07:00 +15°C° 0 mm 1 mps 717 mmHg 60%
    08:00 +17°C° 0 mm 2 mps 717 mmHg 54%
    09:00 +18°C° 0 mm 2 mps 717 mmHg 50%
    10:00 +19°C° 0 mm 3 mps 717 mmHg 45%
    11:00 +21°C° 0 mm 3 mps 717 mmHg 40%
    12:00 +21°C° 0 mm 3 mps 716 mmHg 39%
    13:00 +22°C° 0 mm 4 mps 716 mmHg 38%
    14:00 +22°C° 0 mm 4 mps 715 mmHg 37%
    15:00 +21°C° 0 mm 4 mps 715 mmHg 40%
    16:00 +21°C° 0 mm 3 mps 715 mmHg 44%
    17:00 +20°C° 0 mm 3 mps 714 mmHg 47%
    18:00 +18°C° 0 mm 3 mps 714 mmHg 55%
    19:00 +16°C° 0 mm 2 mps 714 mmHg 62%
    20:00 +15°C° 0 mm 1 mps 714 mmHg 70%
    21:00 +14°C° 0.1 mm 1 mps 715 mmHg 71%
    22:00 +14°C° 0.1 mm 1 mps 715 mmHg 72%
    23:00 +14°C° 0.1 mm 1 mps 715 mmHg 73%

    30 April, Tuesday

    Time Temperature Precipitation Wind Pressure Humidity
    00:00 +13°C° 0.1 mm 1 mps 715 mmHg 74%
    01:00 +13°C° 0.1 mm 1 mps 715 mmHg 76%
    02:00 +11°C° 0.1 mm 0 mps 715 mmHg 78%
    03:00 +11°C° 0 mm 0 mps 715 mmHg 79%
    04:00 +10°C° 0 mm 0 mps 715 mmHg 80%
    05:00 +9°C° 0 mm 0 mps 714 mmHg 81%
    06:00 +11°C° 0 mm 1 mps 714 mmHg 73%
    07:00 +13°C° 0 mm 1 mps 714 mmHg 65%
    08:00 +14°C° 0 mm 1 mps 714 mmHg 57%
    09:00 +15°C° 0 mm 2 mps 714 mmHg 51%
    10:00 +16°C° 0 mm 2 mps 714 mmHg 46%
    11:00 +17°C° 0 mm 3 mps 714 mmHg 40%
    12:00 +17°C° 0.2 mm 3 mps 714 mmHg 42%
    13:00 +17°C° 0.2 mm 4 mps 714 mmHg 44%
    14:00 +18°C° 0.2 mm 4 mps 713 mmHg 47%
    15:00 +17°C° 0.3 mm 4 mps 713 mmHg 51%
    16:00 +15°C° 0.3 mm 4 mps 713 mmHg 55%
    17:00 +14°C° 0.3 mm 4 mps 713 mmHg 59%
    18:00 +13°C° 0.1 mm 3 mps 713 mmHg 66%
    19:00 +12°C° 0.1 mm 2 mps 714 mmHg 73%
    20:00 +11°C° 0.1 mm 1 mps 714 mmHg 80%
    21:00 +10°C° 0 mm 1 mps 714 mmHg 82%
    22:00 +10°C° 0 mm 1 mps 715 mmHg 83%
    23:00 +9°C° 0 mm 1 mps 715 mmHg 85%
    Show more